CW9561 Weather Reports


time (UTC)temp
C
wind
direction
speed
KPH
gust
KPH
rain 1hr
cm
rain 24hr
cm
rain mn
cm
humidity
%
barometer
mb
20260504215033 9 191 3.2 0.0 0.00 0.00 0.00 60 1012.9
20260504214027 9 286 4.8 0.0 0.00 0.00 0.00 61 1013.2
20260504213027 9 237 3.2 0.0 0.00 0.00 0.00 60 1013.0
20260504212028 9 197 6.4 0.0 0.00 0.00 0.00 60 1013.0
20260504211021 10 244 3.2 0.0 0.00 0.00 0.00 60 1013.1
20260504205034 8 180 4.8 0.0 0.00 0.00 0.00 68 1012.9
20260504204034 8 166 4.8 0.0 0.00 0.00 0.00 65 1013.0
20260504203030 9 195 8.0 0.0 0.00 0.00 0.00 60 1013.2
20260504202030 11 200 3.2 0.0 0.00 0.00 0.00 48 1013.1
20260504201023 11 163 4.8 0.0 0.00 0.00 0.00 49 1013.1
20260504200023 10 163 1.6 0.0 0.00 0.00 0.00 50 1013.1
20260504195040 8 155 1.6 0.0 0.00 0.00 0.00 55 1013.3
20260504193037 10 218 4.8 0.0 0.00 0.00 0.00 54 1014.1
20260504192033 10 360 3.2 0.0 0.00 0.00 0.00 53 1013.7
20260504190031 11 337 6.4 0.0 0.00 0.00 0.00 54 1013.9
20260504185027 10 290 6.4 0.0 0.00 0.00 0.00 54 1014.0
20260504183022 10 349 1.6 0.0 0.00 0.00 0.00 55 1014.4
20260504182020 10 226 3.2 0.0 0.00 0.00 0.00 53 1014.4
20260504181035 10 257 1.6 0.0 0.00 0.00 0.00 56 1014.6
20260504180033 11 184 0.0 0.0 0.00 0.00 0.00 50 1014.6
20260504175030 11 284 1.6 0.0 0.00 0.00 0.00 49 1014.5
20260504174029 11 202 4.8 0.0 0.00 0.00 0.00 54 1014.7
20260504173029 11 238 3.2 0.0 0.00 0.00 0.00 51 1014.8
20260504172021 10 240 3.2 0.0 0.00 0.00 0.00 56 1015.0
20260504151032 6 182 4.8 0.0 0.00 0.00 0.00 63 1015.2
20260504141022 3 19 1.6 0.0 0.00 0.00 0.00 57 1015.6
20260504081029 2 259 0.0 0.0 0.00 0.00 0.00 49 1015.2
20260504045026 6 259 3.2 0.0 0.00 0.00 0.00 42 1016.4
20260504044039 6 259 4.8 0.0 0.00 0.00 0.00 42 1016.6
20260504042026 5 259 1.6 0.0 0.00 0.00 0.00 43 1016.4
20260504041026 5 259 1.6 0.0 0.00 0.00 0.00 43 1016.6
20260504035039 6 259 0.0 0.0 0.00 0.00 0.00 42 1016.6
20260504034031 6 259 0.0 0.0 0.00 0.00 0.00 41 1016.6
20260504033024 7 259 1.6 0.0 0.00 0.00 0.00 41 1016.5
20260504032037 7 259 1.6 0.0 0.00 0.00 0.00 42 1016.6
20260504031030 7 259 0.0 0.0 0.00 0.00 0.00 45 1017.2
20260504030022 7 259 0.0 0.0 0.00 0.00 0.00 46 1017.3
20260504025035 7 259 0.0 0.0 0.00 0.00 0.00 46 1017.0
20260504024028 8 259 0.0 0.0 0.00 0.00 0.00 45 1017.0
20260504023022 8 259 0.0 0.0 0.00 0.00 0.00 44 1016.9
20260504022020 8 259 0.0 0.0 0.00 0.00 0.00 42 1016.8
20260504021036 9 259 0.0 0.0 0.00 0.00 0.00 41 1016.7
20260504020030 10 259 0.0 0.0 0.00 0.00 0.00 40 1016.7
20260504015040 10 259 0.0 0.0 0.00 0.00 0.00 39 1016.5
20260504014031 10 259 0.0 0.0 0.00 0.00 0.00 38 1016.6
20260504013026 11 259 0.0 0.0 0.00 0.00 0.00 37 1016.4
20260504012040 11 259 0.0 0.0 0.00 0.00 0.00 34 1016.5
20260504011031 11 259 0.0 0.0 0.00 0.00 0.00 33 1016.5
20260504010024 12 259 0.0 0.0 0.00 0.00 0.00 33 1016.5
20260504005024 12 259 0.0 0.0 0.00 0.00 0.00 33 1016.4
20260504004020 12 259 0.0 0.0 0.00 0.00 0.00 32 1016.7
20260504003033 12 246 0.0 0.0 0.00 0.00 0.00 30 1016.6
20260504001026 12 284 0.0 0.0 0.00 0.00 0.00 33 1016.7
20260504000023 12 277 0.0 0.0 0.00 0.00 0.00 31 1016.8
20260503235037 12 310 0.0 0.0 0.00 0.00 0.00 33 1016.9
20260503233023 12 188 0.0 0.0 0.00 0.00 0.00 33 1017.0
20260503232033 12 329 0.0 0.0 0.00 0.00 0.00 35 1017.2
20260503231028 12 306 0.0 0.0 0.00 0.00 0.00 35 1017.1
20260503230029 12 294 0.0 0.0 0.00 0.00 0.00 34 1017.2
20260503225023 11 301 0.0 0.0 0.00 0.00 0.00 36 1017.2
20260503224038 11 295 3.2 0.0 0.00 0.00 0.00 40 1017.4
20260503223029 10 360 3.2 0.0 0.00 0.00 0.00 46 1018.0
20260503221020 13 264 1.6 0.0 0.00 0.00 0.00 34 1017.7
20260503220037 13 281 3.2 0.0 0.00 0.00 0.00 32 1017.6